Location: Sevilla
(37.3933°N, 5.9839°W)
Time: 05:42:38
(UTC+02:00)

Transit 2A - Pass Details

Date: 28 June 2024
Orbit: 591 x 960 km, 66.7° (Epoch: 15 July)

Event Time Altitude Azimuth Distance (km) Brightness Sun altitude
Rises 15:26:09 0° 197° (SSW) 2,971 9.3 71.0°
Reaches altitude 10° 15:28:21 10° 194° (SSW) 2,110 8.7 70.7°
Maximum altitude 15:33:05 63° 114° (ESE) 813 7.1 70.0°
Drops below altitude 10° 15:38:24 10° 34° (NE) 2,361 8.5 69.2°
Sets 15:40:58 0° 31° (NNE) 3,358 9.1 68.8°
